Weather Roundup
Issued by NWS Springfield, MO

Home | Current Version | Previous Version | Text Only | Print | Product List | Glossary On
Versions: 1 2 3 4 5 6 7 8 9 10 11 12 13 14 15 16 17 18 19 20 21 22 23 24 25 26 27 28 29 30 31 32 33 34 35 36 37 38 39 40 41 42 43 44 45 46 47 48 49 50
523
NZUS99 KSGF 221957
HRRSGF

HOURLY WEATHER
NATIONAL WEATHER SERVICE SPRINGFIELD MO
200 PM CST WED FEB 22 2017

......SGF CWA......

CITY           SKY/WX    TMP DP  RH WIND       PRES   REMARKS
SPRINGFIELD    SUNNY     68  56  65 SE9       29.76F
JOPLIN         SUNNY     76  46  34 SW15      29.74F
WEST PLAINS    MOSUNNY   66  55  67 SW8       29.82F
ROLLA          MOSUNNY   64  56  75 S10       29.76F
BRANSON        MOSUNNY   70  55  60 S6        29.80F

......SURROUNDING SGF CWA......

CITY           SKY/WX    TMP DP  RH WIND       PRES   REMARKS
CHANUTE        SUNNY     79  36  21 SW18G24   29.71F
PARSONS        SUNNY     78  39  24 S15G24    29.72F
COFFEYVILLE    SUNNY     78  42  27 S18       29.71F
EMPORIA        SUNNY     78  34  20 SW13G18   29.68F
HARRISON AR    SUNNY     73  56  54 SE13      29.78F

......KANSAS AND MISSOURI......

CITY           SKY/WX    TMP DP  RH WIND       PRES   REMARKS
KANSAS CTY INT MOSUNNY   77  36  22 SW15G22   29.65F
SEDALIA        SUNNY     75  49  39 S17       29.71F
ST JOSEPH      SUNNY     74  37  26 W16       29.64F
ST LOUIS       MOSUNNY   70  56  61 SW8       29.75F
WICHITA        MOSUNNY   73  44  35 SW10      29.70F
TOPEKA         SUNNY     77  36  22 SW8       29.65F
OLATHE         MOSUNNY   74  37  26 S15G21    29.68F

......TENNESSEE......

CITY           SKY/WX    TMP DP  RH WIND       PRES   REMARKS
MEMPHIS        NOT AVBL
NASHVILLE      CLOUDY    68  56  65 S5        29.85F

......ARKANSAS.......

CITY           SKY/WX    TMP DP  RH WIND       PRES   REMARKS
FAYETTEVILLE   SUNNY     76  49  38 S9        29.79F
FT SMITH       SUNNY     75  57  53 NE7       29.77F
LITTLE ROCK    CLOUDY    60  58  92 S5        29.85F

......OKLAHOMA.......

CITY           SKY/WX    TMP DP  RH WIND       PRES   REMARKS
TULSA          PTSUNNY   78  41  26 S8        29.73F
PONCA CITY     SUNNY     75  41  29 SW9       29.71F
MCALESTER      SUNNY     80  48  32 S9G18     29.77F
OKLAHOMA CITY  MOSUNNY   80  34  19 SW21      29.72F

......IOWA............

CITY           SKY/WX    TMP DP  RH WIND       PRES   REMARKS
DES MOINES     NOT AVBL
QUAD CITIES    SUNNY     73  52  47 S16       29.60F

......ILLINOIS........

CITY           SKY/WX    TMP DP  RH WIND       PRES   REMARKS
QUINCY         NOT AVBL
CHICAGO        MOSUNNY   65  53  65 SW18G24   29.67F




USA.gov is the U.S. government's official web portal to all federal, state and local government web resources and services.